Location: Unspecified
(35.6961°N, 0.0000°E)
Time: 16:58:46
(UTC+00:00)

Vanguard 3 - Pass Details

Date: 30 May 2019
Orbit: 508 x 3263 km, 33.3° (Epoch: 16 June)

Event Time Altitude Azimuth Distance (km) Brightness Sun altitude
Rises 00:02:57 0° 278° (W) 4,072 10.8 -32.6°
Reaches altitude 10° 00:05:22 10° 272° (W) 3,390 10.3 -32.6°
Enters shadow 00:09:34 32° 251° (WSW) 2,525 9.4 -32.5°
Maximum altitude 00:13:57 48° 201° (SSW) 2,410 - -32.5°
Drops below altitude 10° 00:28:30 10° 134° (SE) 5,590 - -32.1°
Exits shadow 00:28:31 10° 134° (SE) 5,592 11.1 -32.1°
Sets 00:33:48 0° 129° (SE) 6,903 11.6 -32.0°
